Grand Junction, CO

6:35 AM MDT on October 20, 2019 (GMT -0600)
Walker

Weather History for KGJT - March, 2019

Change the Weather History Date:

Monday, March 18, 2019

  Actual Average Record
Temperature  
Mean Temperature 47 °F 45 °F  
Max Temperature 61 °F 57 °F 80 °F (2017)
Min Temperature 32 °F 32 °F 10 °F (1923)
Degree Days  
Heating Degree Days 18 20  
Month to date heating degree days 411 407  
Since 1 July heating degree days 4866 4786  
Cooling Degree Days 0 0  
Month to date cooling degree days 0 0  
Year to date cooling degree days 0 0  
Moisture  
Dew Point 26 °F    
Average Humidity 47    
Maximum Humidity 70    
Minimum Humidity 24    
Precipitation  
Precipitation 0.00 in 0.03 in 0.65 in (1943)
Month to date precipitation 1.83 0.48  
Year to date precipitation 3.27 1.60  
Snow  
Snow 0.00 in 0.10 in 3.40 in (1998)
Month to date snowfall 0.0 1.5  
Since 1 July snowfall 17.4 17.0  
Snow Depth 0.00 in    
Sea Level Pressure  
Sea Level Pressure 30.10 in    
Wind  
Wind Speed 7 mph (East)    
Max Wind Speed 20 mph    
Max Gust Speed 26 mph    
Visibility 10 miles    
Events      
T = Trace of Precipitation, MM = Missing Value Source: NWS Daily Summary

Daily Weather History Graph

Daily Weather History Graph

Search for Another Location

Airport or City:

Astronomy

Mar. 18, 2019 Rise Set
Actual Time 7:20 AM MDT 7:23 PM MDT
Civil Twilight 6:54 AM MDT 7:50 PM MDT
Nautical Twilight 6:23 AM MDT 8:21 PM MDT
Astronomical Twilight 5:51 AM MDT 8:53 PM MDT
Moon 4:47 PM MDT (3/18) 6:04 AM MDT (3/18)
Length of Visible Light 12h 56m
Length of Day
12h 03m
Waxing Gibbous, 92% of the Moon is Illuminated
Mar 18
Waxing Gibbous
Mar 20
Full
Mar 27
Last Quarter
Apr 5
New
Apr 12
First Quarter

Hourly Weather History & Observations

Time (MDT) Temp. Windchill Dew Point Humidity Pressure Visibility Wind Dir Wind Speed Gust Speed Precip Events Conditions
12:53 AM 37.9 °F 33.5 °F 25.0 °F 60% 30.15 in 10.0 mi East 5.8 mph - N/A   Clear
1:53 AM 35.1 °F 30.1 °F 25.0 °F 67% 30.14 in 10.0 mi ESE 5.8 mph - N/A   Clear
2:53 AM 35.1 °F 29.3 °F 26.1 °F 70% 30.13 in 10.0 mi East 6.9 mph - N/A   Clear
3:53 AM 37.9 °F 28.9 °F 25.0 °F 60% 30.10 in 10.0 mi ESE 16.1 mph - N/A   Clear
4:53 AM 34.0 °F 29.8 °F 25.0 °F 70% 30.11 in 10.0 mi ENE 4.6 mph - N/A   Clear
5:53 AM 33.1 °F 24.9 °F 25.0 °F 72% 30.12 in 10.0 mi East 10.4 mph - N/A   Clear
6:53 AM 34.0 °F 26.0 °F 25.0 °F 70% 30.14 in 10.0 mi SE 10.4 mph - N/A   Clear
7:53 AM 33.1 °F 28.7 °F 25.0 °F 72% 30.18 in 10.0 mi South 4.6 mph - N/A   Clear
8:53 AM 37.9 °F 31.5 °F 28.0 °F 68% 30.20 in 10.0 mi SE 9.2 mph - N/A   Clear
9:53 AM 45.0 °F 41.2 °F 27.0 °F 49% 30.19 in 10.0 mi SE 6.9 mph - N/A   Clear
10:53 AM 48.0 °F - 26.1 °F 42% 30.17 in 10.0 mi SSE 6.9 mph - N/A   Clear
11:53 AM 52.0 °F - 26.1 °F 37% 30.14 in 10.0 mi South 3.5 mph - N/A   Clear
12:53 PM 54.0 °F - 26.1 °F 34% 30.12 in 10.0 mi Calm Calm - N/A   Clear
1:53 PM 57.0 °F - 27.0 °F 32% 30.10 in 10.0 mi WNW 6.9 mph - N/A   Clear
2:53 PM 57.9 °F - 27.0 °F 31% 30.06 in 10.0 mi North 5.8 mph - N/A   Clear
3:53 PM 59.0 °F - 26.1 °F 28% 30.03 in 10.0 mi NW 11.5 mph - N/A   Partly Cloudy
4:53 PM 59.0 °F - 25.0 °F 27% 30.03 in 10.0 mi WNW 15.0 mph - N/A   Clear
5:53 PM 57.9 °F - 21.9 °F 25% 30.02 in 10.0 mi WNW 12.7 mph - N/A   Clear
6:53 PM 55.0 °F - 21.0 °F 27% 30.04 in 10.0 mi WNW 6.9 mph - N/A   Clear
7:53 PM 50.0 °F - 24.1 °F 36% 30.06 in 10.0 mi North 4.6 mph - N/A   Clear
8:53 PM 48.0 °F - 28.9 °F 48% 30.05 in 10.0 mi North 6.9 mph - N/A   Clear
9:53 PM 46.9 °F - 30.0 °F 52% 30.05 in 10.0 mi West 3.5 mph - N/A   Clear
10:53 PM 44.1 °F - 30.0 °F 58% 30.06 in 10.0 mi Calm Calm - N/A   Clear
11:53 PM 44.1 °F - 28.9 °F 55% 30.05 in 10.0 mi Calm Calm - N/A   Clear